Voltar ao catálogo

STARLINK-2663

AtivoComunicaçõesVLEO
NORAD 48443·PAYLOAD·🇺🇸 United States

Lançado May 9, 2021 de Cape Canaveral Space Force Station

Loading…

Próximas Passagens (próximas 24 horas)

TLE

AtualizadoSource: CelesTrak SupGP

Época: Sep 14, 2026, 21:16 UTC

1 48443C 21040R   26257.88659722 -.00000920  00000+0 -29570-4 0  2575
2 48443  53.1588  17.6130 0001212  81.2700 188.6388 15.31712629    17

Acompanhe STARLINK-2663 em tempo real com AllMySat

Download on the App Store